Home   Weather   Suzhou   Past weeks

Flag for China Past Weather in Suzhou, Jiangsu, China — Yesterday and Last 2 Weeks

Now
45 °F

Fog.


Feels Like: 43 °F
Forecast: 28 / 39 °F
Wind: 3 mph from North

Location: Shanghai Hongqiao Airport

Current Time: Jan 19, 2017 at 8:25:02 am

Latest Report: Jan 19, 2017 at 8:00 am


Visibility: 3 mi

Pressure: 30.33 "Hg

Humidity: 87%

Dew Point: 41 °F

Location of SuzhouLocation

Past Weather in Suzhou — Graph

°F

Suzhou Temperature Yesterday

Maximum temperature yesterday: 48 °F (at 12:00 am)
Minimum temperature yesterday: 46 °F (at 2:00 am)
Average temperature yesterday: 47 °F

High & Low Weather Summary for the Past Weeks

 TemperatureHumidityPressure
High61 °F (Jan 4, 11:30 am)100% (Jan 5, 5:00 pm)30.48 "Hg (Jan 5, 5:00 pm)
Low34 °F (Jan 14, 6:00 am)37% (Jan 13, 4:00 pm)29.89 "Hg (Jan 7, 3:00 pm)
Average46 °F76%30.25 "Hg
* Reported Jan 4 7:00 am — Jan 19 7:00 am, Suzhou, Weather by CustomWeather, © 2017

Note: Actual official high and low records may vary slightly from our data, if they occured in-between our weather recording intervals... More about our weather records

Advertising

Suzhou Weather History for the Previous 24 Hours

Scroll right to see more
 ConditionsComfort  
Time TempWeatherWind HumidityBarometerVisibility
7:00 am
Thu, Jan 19
45 °FFog.3 mph87%30.30 "Hg3 mi
6:30 am45 °FMostly cloudy.3 mph87%30.33 "Hg4 mi
6:00 am45 °FMostly cloudy.3 mph87%30.33 "Hg4 mi
5:30 am45 °FMostly cloudy.3 mph87%30.33 "Hg4 mi
5:00 am45 °FMostly cloudy.6 mph81%30.33 "Hg4 mi
4:30 am45 °FOvercast.6 mph81%30.33 "Hg4 mi
4:00 am45 °FOvercast.6 mph81%30.33 "Hg4 mi
3:30 am45 °FOvercast.3 mph87%30.33 "Hg4 mi
3:00 am45 °FOvercast.3 mph81%30.33 "Hg5 mi
2:30 am45 °FOvercast.3 mph81%30.33 "Hg5 mi
2:00 am45 °FLight rain. Overcast.6 mph81%30.33 "HgN/A
1:30 am45 °FOvercast.8 mph81%30.33 "HgN/A
1:00 am46 °FOvercast.8 mph71%30.33 "HgN/A
12:30 am46 °FMostly cloudy.8 mph71%30.33 "HgN/A
12:00 am46 °FOvercast.6 mph71%30.33 "HgN/A
11:30 pm
Wed, Jan 18
46 °FOvercast.6 mph76%30.33 "HgN/A
11:00 pm46 °FPassing clouds.6 mph76%30.33 "HgN/A
10:30 pm46 °FLight rain. Clear.8 mph76%30.33 "HgN/A
10:00 pm46 °FLight rain. Overcast.3 mph76%30.36 "HgN/A
9:30 pm46 °FLight rain. Overcast.8 mph76%30.33 "HgN/A
9:00 pm46 °FLight rain. Mostly cloudy.8 mph82%30.33 "HgN/A
8:30 pm46 °FLight rain. Overcast.8 mph82%30.33 "HgN/A
8:00 pm46 °FLight rain. Overcast.8 mph76%30.33 "HgN/A
7:30 pm46 °FLight rain. Overcast.8 mph76%30.33 "HgN/A
7:00 pm46 °FLight rain. Overcast.8 mph71%30.33 "HgN/A
6:30 pm46 °FLight rain. Overcast.10 mph76%30.33 "HgN/A
6:00 pm46 °FLight rain. Mostly cloudy.10 mph76%30.33 "HgN/A
5:30 pm46 °FLight rain. Mostly cloudy.8 mph76%30.33 "HgN/A
5:00 pm46 °FLight rain. Mostly cloudy.10 mph82%30.33 "HgN/A
4:30 pm46 °FLight rain. Mostly cloudy.10 mph82%30.33 "HgN/A
4:00 pm46 °FLight rain. Mostly cloudy.13 mph82%30.33 "HgN/A
3:30 pm46 °FLight rain. Mostly cloudy.13 mph87%30.30 "HgN/A
3:00 pm46 °FMostly cloudy.10 mph87%30.30 "HgN/A
2:30 pm46 °FMostly cloudy.10 mph87%30.30 "HgN/A
2:00 pm46 °FMostly cloudy.10 mph87%30.33 "HgN/A
1:30 pm46 °FMostly cloudy.8 mph87%30.33 "Hg5 mi
1:00 pm46 °FLight rain. Mostly cloudy.8 mph87%30.33 "Hg4 mi
12:30 pm46 °FLight rain. Fog.8 mph87%30.33 "Hg3 mi
12:00 pm46 °FLight rain. Fog.6 mph93%30.36 "Hg2 mi
11:30 am46 °FLight rain. Fog.8 mph93%30.36 "Hg2 mi
11:00 am46 °FLight rain. Fog.8 mph87%30.39 "Hg2 mi
10:30 am46 °FLight rain. Fog.6 mph87%30.39 "Hg2 mi
10:00 am46 °FLight rain. Fog.8 mph93%30.39 "Hg2 mi
9:30 am48 °FLight rain. Mostly cloudy.10 mph82%30.39 "HgN/A
9:00 am48 °FLight rain. Mostly cloudy.10 mph82%30.39 "HgN/A
8:30 am48 °FMostly cloudy.10 mph82%30.36 "HgN/A
8:00 am48 °FMostly cloudy.8 mph82%30.36 "HgN/A
Weather by CustomWeather, © 2017

See weather overviewHow to use our weather pages